METEOR 2-17 DEB, 31399

Orbit data source: Space-Track

METEOR 2-17 DEB, 31399 is space debris in LEO originally from a launch on Sat, 30 Jan 1988 UTC launched from the Plesetsk Missile And Space Complex (PKMTR). Debris objects in space refer to the collection of defunct objects orbiting the Earth. Examples of debris include non-operational satellites, rocket bodies, and fragments generated from explosions, collisions, or faulty payload assembly.

Loading next visibility...
Identifier
31399, 1988-005U
Orbit
LEO
Country
Flag of CISCIS
Related business
Manufacturer
Unknown
Mission
Spacecraft
Bus & Motor
Unknown
Mass
Unknown
Launch date (UTC)
1988-01-30 (38 years ago)
Launch vehicle
Unknown
Launch site
Plesetsk Missile And Space Complex (PKMTR)
Object type
Payload
Rocket body
Debris
Shape & HBR
Unknown shape, 0.1 m
Radar Cross Section
Small (<0.1 m²)

Expand to show TLE details & history
Last TLE update: 2 days ago

TLE from 2 days ago
0 METEOR 2-17 DEB
1 31399U 88005U   25305.57208553  .00001899  00000-0  11641-2 0  9998
2 31399  82.5167  51.2160 0010793 131.2676 228.9427 14.05292713 47422
Epoch: 2025-11-01T13:43Z
TLE epoch observation values (Epoch: 2025-11-01T13:43:48.189Z)
Latitude
-0.00007°
Longitude
164.16496°
Altitude
883.604 km
Speed
7.408 km/s
True Right ascension
03h 24m 51s
True Declination
0° 00' 00"
Sunlit
Object was in full shadow at epoch
Visualization orbit readout
Latitude
Unknown
Longitude
Unknown
Altitude
Unknown
Speed
Unknown
Apparent Right ascension
Unknown
Apparent Declination
Unknown
Sunlit
N/A
Visualization observer readout
Local Sidereal Time
23:51:33
Azimuth
Unknown
Elevation
Unknown
Doppler factor
Unknown
Orbital elements
Apogee altitude
880.475 km
Perigee altitude
864.823 km
Semi-major axis
7,250.786 km
Eccentricity
0.00108
Inclination
82.5167°
RAAN
51.216°
Arg. of periapsis
131.2676°
True anomaly
228.84952°
Mean anomaly
228.9427°
Eccentric anomaly
228.8961°
Mean motion
3.51533 °/min
Orbital period
102.41 mins
BSTAR
0.0011641
Loading maneuver chart data...
Computing Atmospheric mass density...
Loading historical data...
Loading historical data...
Loading historical data...
Loading historical data...
Loading historical data...
Loading historical data...
Loading historical data...

Documentation

Showing up to 5 results
|